Weather History for KMDZ - October, 2011

Change the Weather History Date:

Saturday, October 29, 2011

  Actual Average Record
Temperature  
Mean Temperature 37 °F -  
Max Temperature 48 °F 49 °F 74 °F (1950)
Min Temperature 26 °F 29 °F 15 °F (1952)
Degree Days  
Heating Degree Days 28    
Moisture  
Dew Point 29 °F    
Average Humidity 76    
Maximum Humidity 100    
Minimum Humidity 46    
Precipitation  
Precipitation 0.00 in - - ()
Sea Level Pressure  
Sea Level Pressure 29.99 in    
Wind  
Wind Speed 2 mph (West)    
Max Wind Speed 10 mph    
Max Gust Speed -    
Visibility 9 miles    
Events      
Averages and records for this station are not official NWS values.
T = Trace of Precipitation, MM = Missing Value Source: NWS Daily Summary

Daily Weather History Graph

Daily Weather History Graph

Search for Another Location

Airport or City:

Trip Planner

Search our weather history database for the weather conditions in past years. The results will help you decide how hot, cold, wet, or windy it might be!

Date:

Astronomy

Oct. 29, 2011 Rise Set
Actual Time 7:35 AM CDT 5:53 PM CDT
Civil Twilight 7:04 AM CDT 6:24 PM CDT
Nautical Twilight 6:30 AM CDT 6:58 PM CDT
Astronomical Twilight 5:56 AM CDT 7:32 PM CDT
Moon 11:06 AM CDT (10/29) 8:08 PM CDT (10/29)
Length of Visible Light 11h 19m
Length of Day
10h 18m
Waxing Crescent, 12% of the Moon is Illuminated
Oct 29
Waxing Crescent
Nov 2
First Quarter
Nov 10
Full
Nov 18
Last Quarter
Nov 25
New

Hourly Weather History & Observations

Time (CDT) Temp. Windchill Dew Point Humidity Pressure Visibility Wind Dir Wind Speed Gust Speed Precip Events Conditions
12:15 AM 32.0 °F - 30.2 °F 93% 29.95 in 5.0 mi Calm Calm - N/A   Mist
12:35 AM 32.0 °F - 30.2 °F 93% 29.95 in 5.0 mi Calm Calm - N/A   Mist
12:55 AM 32.0 °F - 30.2 °F 93% 29.95 in 7.0 mi Calm Calm - N/A   Unknown
1:15 AM 32.0 °F - 30.2 °F 93% 29.95 in 7.0 mi Calm Calm - N/A   Unknown
1:35 AM 30.2 °F - 28.4 °F 93% 29.95 in 10.0 mi Calm Calm - N/A   Unknown
1:55 AM 30.2 °F - 28.4 °F 93% 29.96 in 10.0 mi Calm Calm - N/A   Unknown
2:15 AM 30.2 °F - 28.4 °F 93% 29.96 in 10.0 mi Calm Calm - N/A   Unknown
2:35 AM 30.2 °F - 28.4 °F 93% 29.96 in 7.0 mi Calm Calm - N/A   Unknown
2:55 AM 30.2 °F - 28.4 °F 93% 29.96 in 10.0 mi Calm Calm - N/A   Unknown
3:15 AM 30.2 °F - 28.4 °F 93% 29.95 in 7.0 mi Calm Calm - N/A   Unknown
3:35 AM 30.2 °F 26.7 °F 28.4 °F 93% 29.96 in 10.0 mi NW 3.5 mph - N/A   Unknown
3:55 AM 28.4 °F - 26.6 °F 93% 29.96 in 10.0 mi Calm Calm - N/A   Unknown
4:15 AM 28.4 °F - 26.6 °F 93% 29.95 in 10.0 mi Calm Calm - N/A   Unknown
4:35 AM 28.4 °F - 26.6 °F 93% 29.96 in 10.0 mi Calm Calm - N/A   Unknown
5:15 AM 28.4 °F - 26.6 °F 93% 29.97 in 10.0 mi Calm Calm - N/A   Unknown
5:35 AM 28.4 °F - 26.6 °F 93% 29.98 in 10.0 mi Calm Calm - N/A   Unknown
5:55 AM 28.4 °F - 26.6 °F 93% 29.98 in 10.0 mi Calm Calm - N/A   Unknown
6:15 AM 28.4 °F - 26.6 °F 93% 29.98 in 7.0 mi Calm Calm - N/A   Unknown
6:35 AM 28.4 °F - 26.6 °F 93% 29.98 in 4.0 mi Calm Calm - N/A   Mist
6:55 AM 30.2 °F - 28.4 °F 93% 29.98 in 10.0 mi Calm Calm - N/A   Unknown
7:15 AM 26.6 °F - 26.6 °F 100% 29.98 in 7.0 mi Calm Calm - N/A   Unknown
7:35 AM 26.6 °F - 26.6 °F 100% 29.99 in 3.0 mi Calm Calm - N/A   Mist
7:55 AM 26.6 °F - 24.8 °F 93% 29.99 in 7.0 mi Calm Calm - N/A   Unknown
8:15 AM 28.4 °F - 26.6 °F 93% 30.00 in 5.0 mi Calm Calm - N/A   Mist
8:35 AM 30.2 °F - 28.4 °F 93% 30.01 in 7.0 mi Calm Calm - N/A   Unknown
8:55 AM 30.2 °F - 30.2 °F 100% 30.01 in 7.0 mi Calm Calm - N/A   Unknown
9:15 AM 33.8 °F 30.8 °F 30.2 °F 87% 30.02 in 10.0 mi West 3.5 mph - N/A   Unknown
9:35 AM 33.8 °F 30.8 °F 30.2 °F 87% 30.02 in 10.0 mi West 3.5 mph - N/A   Unknown
10:15 AM 37.4 °F 33.8 °F 33.8 °F 87% 30.02 in 10.0 mi West 4.6 mph - N/A   Unknown
10:35 AM 39.2 °F 35.0 °F 33.8 °F 81% 30.03 in 10.0 mi WNW 5.8 mph - N/A   Unknown
10:55 AM 39.2 °F - 33.8 °F 81% 30.02 in 10.0 mi Calm Calm - N/A   Unknown
11:15 AM 41.0 °F 38.0 °F 33.8 °F 76% 30.03 in 10.0 mi West 4.6 mph - N/A   Unknown
11:35 AM 42.8 °F 38.0 °F 33.8 °F 70% 30.03 in 10.0 mi WSW 8.1 mph - N/A   Unknown
11:55 AM 42.8 °F 39.3 °F 33.8 °F 70% 30.03 in 10.0 mi West 5.8 mph - N/A   Unknown
12:15 PM 44.6 °F 40.2 °F 33.8 °F 66% 30.03 in 10.0 mi WSW 8.1 mph - N/A   Unknown
12:35 PM 44.6 °F 40.2 °F 32.0 °F 61% 30.03 in 10.0 mi West 8.1 mph - N/A   Unknown
12:55 PM 42.8 °F - 32.0 °F 66% 30.03 in 10.0 mi Calm Calm - N/A   Unknown
1:15 PM 44.6 °F 40.2 °F 32.0 °F 61% 30.02 in 10.0 mi WSW 8.1 mph - N/A   Unknown
1:35 PM 44.6 °F 40.2 °F 30.2 °F 57% 30.01 in 10.0 mi West 8.1 mph - N/A   Unknown
1:55 PM 46.4 °F 41.5 °F 32.0 °F 57% 30.00 in 10.0 mi West 10.4 mph - N/A   Unknown
2:15 PM 46.4 °F 42.9 °F 28.4 °F 50% 30.00 in 10.0 mi WNW 6.9 mph - N/A   Unknown
2:35 PM 46.4 °F 42.4 °F 28.4 °F 50% 30.00 in 10.0 mi West 8.1 mph - N/A   Unknown
2:55 PM 46.4 °F 42.4 °F 28.4 °F 50% 30.00 in 10.0 mi West 8.1 mph - N/A   Unknown
3:15 PM 48.2 °F - 28.4 °F 46% 29.99 in 10.0 mi WSW 8.1 mph - N/A   Unknown
3:35 PM 46.4 °F 43.5 °F 28.4 °F 50% 29.99 in 10.0 mi WSW 5.8 mph - N/A   Unknown
3:55 PM 48.2 °F - 28.4 °F 46% 29.99 in 10.0 mi North 4.6 mph - N/A   Unknown
4:15 PM 46.4 °F 44.3 °F 28.4 °F 50% 29.99 in 10.0 mi NW 4.6 mph - N/A   Unknown
4:35 PM 46.4 °F 45.2 °F 28.4 °F 50% 29.99 in 10.0 mi West 3.5 mph - N/A   Unknown
4:55 PM 46.4 °F - 26.6 °F 46% 29.99 in 10.0 mi Calm Calm - N/A   Unknown
5:15 PM 46.4 °F - 26.6 °F 46% 30.00 in 10.0 mi Calm Calm - N/A   Unknown
5:35 PM 44.6 °F - 26.6 °F 49% 29.99 in 10.0 mi Calm Calm - N/A   Unknown
5:55 PM 42.8 °F - 26.6 °F 53% 30.00 in 10.0 mi Calm Calm - N/A   Unknown
6:15 PM 39.2 °F - 28.4 °F 65% 30.00 in 10.0 mi Calm Calm - N/A   Unknown
6:35 PM 39.2 °F - 28.4 °F 65% 30.01 in 10.0 mi Calm Calm - N/A   Unknown
6:55 PM 37.4 °F - 28.4 °F 70% 30.01 in 10.0 mi Calm Calm - N/A   Unknown
7:15 PM 35.6 °F - 26.6 °F 70% 30.01 in 10.0 mi Calm Calm - N/A   Unknown
7:35 PM 33.8 °F - 26.6 °F 75% 30.02 in 10.0 mi Calm Calm - N/A   Unknown
7:55 PM 33.8 °F 30.8 °F 26.6 °F 75% 30.02 in 10.0 mi SE 3.5 mph - N/A   Unknown
8:15 PM 32.0 °F 28.7 °F 26.6 °F 80% 30.02 in 10.0 mi SE 3.5 mph - N/A   Unknown
8:35 PM 33.8 °F 30.8 °F 26.6 °F 75% 30.01 in 10.0 mi SE 3.5 mph - N/A   Unknown
8:55 PM 35.6 °F 32.8 °F 26.6 °F 70% 30.01 in 10.0 mi SE 3.5 mph - N/A   Unknown
9:15 PM 35.6 °F 31.7 °F 26.6 °F 70% 30.01 in 10.0 mi SE 4.6 mph - N/A   Unknown
9:35 PM 35.6 °F 32.8 °F 26.6 °F 70% 30.01 in 10.0 mi SE 3.5 mph - N/A   Unknown
9:55 PM 35.6 °F 31.7 °F 26.6 °F 70% 30.01 in 10.0 mi SE 4.6 mph - N/A   Unknown
10:15 PM 35.6 °F 31.7 °F 26.6 °F 70% 30.01 in 10.0 mi SE 4.6 mph - N/A   Unknown
10:35 PM 37.4 °F 34.9 °F 26.6 °F 65% 30.01 in 10.0 mi SE 3.5 mph - N/A   Unknown
10:55 PM 35.6 °F 32.8 °F 26.6 °F 70% 30.01 in 10.0 mi SE 3.5 mph - N/A   Unknown
11:15 PM 35.6 °F 31.7 °F 26.6 °F 70% 30.01 in 10.0 mi SE 4.6 mph - N/A   Unknown
11:35 PM 35.6 °F 30.7 °F 26.6 °F 70% 30.01 in 10.0 mi SE 5.8 mph - N/A   Unknown
11:55 PM 35.6 °F 30.7 °F 26.6 °F 70% 30.00 in 10.0 mi SE 5.8 mph - N/A   Unknown